BER4226 EDDG-EDDN

Flight info

Callsign BER4226
Flight time 0h 40m
Altitude 23000
Route DOMEG1W DOMEG Z841 GMH Q603 TESGA L603 BOMBI T104 ELMOX DCT LETKU LETKU1V
Aircraft A319/M-SDE3FGHIRWY/LB1

Departure

Time 2026-04-21 01:13
Airport Münster Osnabrück Airport (EDDG)

Arrival

Time 2026-04-21 01:53
Airport Nuremberg Airport (EDDN)
Time Latitude Longitude Altitude Speed Heading
2026-04-21 01:09 52.13583 7.69866 168 ft 0 kts 71°
2026-04-21 01:09 52.13587 7.69888 168 ft 4 kts 71°
2026-04-21 01:10 52.13602 7.69956 168 ft 9 kts 66°
2026-04-21 01:10 52.13671 7.70038 168 ft 15 kts
2026-04-21 01:10 52.13693 7.70035 168 ft 0 kts 350°
2026-04-21 01:11 52.13724 7.70021 168 ft 7 kts 343°
2026-04-21 01:11 52.13772 7.69967 168 ft 9 kts 276°
2026-04-21 01:12 52.13752 7.69847 168 ft 8 kts 251°
2026-04-21 01:12 52.13751 7.69841 168 ft 0 kts 251°
2026-04-21 01:12 52.13744 7.69807 168 ft 9 kts 251°
2026-04-21 01:12 52.13629 7.69266 169 ft 97 kts 251°
2026-04-21 01:13 52.13342 7.67851 366 ft 146 kts 253°
2026-04-21 01:13 52.13032 7.66234 1119 ft 154 kts 253°
2026-04-21 01:13 52.12691 7.64541 1914 ft 159 kts 249°
2026-04-21 01:13 52.12302 7.62761 2515 ft 178 kts 248°
2026-04-21 01:14 52.11857 7.60749 3039 ft 201 kts 248°
2026-04-21 01:14 52.11360 7.58484 3544 ft 224 kts 249°
2026-04-21 01:14 52.10635 7.56125 4093 ft 245 kts 233°
2026-04-21 01:14 52.09458 7.54080 4981 ft 251 kts 216°
2026-04-21 01:15 52.07957 7.52630 5959 ft 253 kts 200°
2026-04-21 01:15 52.06246 7.51929 6944 ft 255 kts 184°
2026-04-21 01:15 52.04470 7.51632 7913 ft 259 kts 183°
2026-04-21 01:15 52.02666 7.51329 8921 ft 262 kts 183°
2026-04-21 01:16 52.00836 7.51070 9949 ft 265 kts 179°
2026-04-21 01:16 51.98943 7.51309 10605 ft 284 kts 168°
2026-04-21 01:16 51.96906 7.51865 11092 ft 309 kts 168°
2026-04-21 01:16 51.94750 7.52456 11727 ft 325 kts 168°
2026-04-21 01:17 51.92463 7.53071 12666 ft 332 kts 168°
2026-04-21 01:17 51.90197 7.53670 13602 ft 337 kts 168°
2026-04-21 01:17 51.87863 7.54281 14503 ft 342 kts 168°
2026-04-21 01:17 51.85494 7.54902 15344 ft 347 kts 168°
2026-04-21 01:18 51.83097 7.55530 16183 ft 351 kts 168°
2026-04-21 01:18 51.80667 7.56164 17024 ft 356 kts 168°
2026-04-21 01:18 51.78210 7.56806 17868 ft 360 kts 169°
2026-04-21 01:18 51.75719 7.57459 18682 ft 365 kts 169°
2026-04-21 01:19 51.73202 7.58121 19385 ft 369 kts 169°
2026-04-21 01:19 51.70671 7.58923 20089 ft 373 kts 163°
2026-04-21 01:19 51.68203 7.60269 20791 ft 377 kts 159°
2026-04-21 01:19 51.65717 7.61699 21491 ft 382 kts 159°
2026-04-21 01:20 51.63202 7.63141 22188 ft 386 kts 159°
2026-04-21 01:20 51.60656 7.64600 22884 ft 391 kts 159°
2026-04-21 01:20 51.58073 7.66073 23191 ft 395 kts 159°
2026-04-21 01:20 51.55512 7.67527 23242 ft 383 kts 159°
2026-04-21 01:21 51.53039 7.68926 23247 ft 373 kts 159°
2026-04-21 01:21 51.50599 7.70306 23247 ft 371 kts 159°
2026-04-21 01:21 51.48169 7.71682 23251 ft 371 kts 159°
2026-04-21 01:21 51.45731 7.73064 23250 ft 372 kts 159°
2026-04-21 01:22 51.43290 7.74443 23244 ft 372 kts 159°
2026-04-21 01:22 51.40845 7.75820 23243 ft 372 kts 159°
2026-04-21 01:22 51.38391 7.77204 23245 ft 382 kts 159°
2026-04-21 01:22 51.35842 7.78649 23246 ft 405 kts 159°
2026-04-21 01:23 51.33131 7.80188 23241 ft 419 kts 159°
2026-04-21 01:23 51.30373 7.81748 23236 ft 422 kts 159°
2026-04-21 01:23 51.27576 7.83322 23229 ft 420 kts 159°
2026-04-21 01:23 51.24856 7.84847 23223 ft 420 kts 159°
2026-04-21 01:24 51.22103 7.86387 23224 ft 420 kts 159°
2026-04-21 01:24 51.19346 7.87925 23224 ft 420 kts 159°
2026-04-21 01:24 51.16663 7.89726 23219 ft 418 kts 151°
2026-04-21 01:24 51.14169 7.92129 23222 ft 425 kts 146°
2026-04-21 01:25 51.11637 7.94727 23220 ft 438 kts 146°
2026-04-21 01:25 51.09060 7.97362 23220 ft 442 kts 146°
2026-04-21 01:25 51.06470 7.99997 23218 ft 443 kts 146°
2026-04-21 01:25 51.03876 8.02627 23212 ft 441 kts 146°
2026-04-21 01:26 51.01298 8.05237 23217 ft 439 kts 146°
2026-04-21 01:26 50.98719 8.07845 23206 ft 440 kts 146°
2026-04-21 01:26 50.96129 8.10461 23207 ft 441 kts 146°
2026-04-21 01:26 50.93536 8.13070 23204 ft 441 kts 146°
2026-04-21 01:27 50.90948 8.15669 23202 ft 442 kts 146°
2026-04-21 01:27 50.88348 8.18283 23200 ft 442 kts 146°
2026-04-21 01:27 50.85754 8.20889 23198 ft 441 kts 146°
2026-04-21 01:27 50.83166 8.23489 23196 ft 442 kts 146°
2026-04-21 01:28 50.80567 8.26091 23196 ft 442 kts 146°
2026-04-21 01:28 50.77968 8.28689 23195 ft 442 kts 146°
2026-04-21 01:28 50.75408 8.31249 23194 ft 442 kts 146°
2026-04-21 01:28 50.72814 8.33840 23192 ft 441 kts 146°
2026-04-21 01:29 50.70220 8.36430 23192 ft 441 kts 146°
2026-04-21 01:29 50.67595 8.39044 23192 ft 441 kts 146°
2026-04-21 01:29 50.65029 8.41593 23203 ft 441 kts 146°
2026-04-21 01:29 50.62397 8.44201 23203 ft 442 kts 147°
2026-04-21 01:30 50.59821 8.46750 23192 ft 443 kts 147°
2026-04-21 01:30 50.57212 8.49328 23190 ft 443 kts 147°
2026-04-21 01:30 50.54599 8.51908 23197 ft 443 kts 146°
2026-04-21 01:30 50.51991 8.54485 23209 ft 443 kts 146°
2026-04-21 01:31 50.49380 8.57060 23216 ft 443 kts 146°
2026-04-21 01:31 50.46739 8.59664 23217 ft 443 kts 147°
2026-04-21 01:31 50.44055 8.61905 23215 ft 444 kts 155°
2026-04-21 01:31 50.41091 8.63492 23219 ft 445 kts 162°
2026-04-21 01:32 50.38124 8.64879 23219 ft 445 kts 162°
2026-04-21 01:32 50.35196 8.66250 23215 ft 445 kts 162°
2026-04-21 01:32 50.32229 8.67642 23215 ft 445 kts 162°
2026-04-21 01:32 50.29267 8.69034 23212 ft 444 kts 162°
2026-04-21 01:33 50.26312 8.70421 23213 ft 443 kts 162°
2026-04-21 01:33 50.23364 8.71799 23213 ft 442 kts 162°
2026-04-21 01:33 50.20421 8.73172 23210 ft 441 kts 162°
2026-04-21 01:33 50.17477 8.74548 23204 ft 443 kts 162°
2026-04-21 01:34 50.14478 8.75953 23192 ft 458 kts 162°
2026-04-21 01:34 50.11400 8.77388 23193 ft 464 kts 162°
2026-04-21 01:34 50.10249 8.77922 23192 ft 465 kts 162°
2026-04-21 01:34 50.07202 8.79608 23194 ft 463 kts 154°
2026-04-21 01:35 50.04423 8.82084 23190 ft 460 kts 143°
2026-04-21 01:35 50.01982 8.85259 23193 ft 458 kts 136°
2026-04-21 01:35 49.99629 8.88608 23190 ft 458 kts 136°
2026-04-21 01:35 49.97278 8.91939 23189 ft 458 kts 136°
2026-04-21 01:36 49.94920 8.95261 23188 ft 458 kts 136°
2026-04-21 01:36 49.92555 8.98578 23187 ft 458 kts 136°
2026-04-21 01:36 49.90188 9.01897 23186 ft 458 kts 136°
2026-04-21 01:36 49.87830 9.05211 23180 ft 458 kts 136°
2026-04-21 01:37 49.85474 9.08526 23182 ft 458 kts 136°
2026-04-21 01:37 49.83117 9.11832 23178 ft 458 kts 136°
2026-04-21 01:37 49.80748 9.15140 23174 ft 458 kts 136°
2026-04-21 01:37 49.78386 9.18432 23169 ft 458 kts 136°
2026-04-21 01:38 49.76023 9.21733 23166 ft 458 kts 136°
2026-04-21 01:38 49.73667 9.25022 22799 ft 449 kts 136°
2026-04-21 01:38 49.71398 9.28179 22356 ft 431 kts 136°
2026-04-21 01:38 49.69179 9.31251 21990 ft 427 kts 137°
2026-04-21 01:39 49.66970 9.34313 21721 ft 426 kts 137°
2026-04-21 01:39 49.64809 9.37345 21295 ft 424 kts 135°
2026-04-21 01:39 49.62993 9.40878 20710 ft 419 kts 120°
2026-04-21 01:39 49.61846 9.44964 20167 ft 415 kts 105°
2026-04-21 01:40 49.61395 9.49333 19626 ft 412 kts 94°
2026-04-21 01:40 49.61157 9.53713 19084 ft 409 kts 94°
2026-04-21 01:40 49.60918 9.58068 18550 ft 406 kts 94°
2026-04-21 01:40 49.60678 9.62391 17979 ft 404 kts 94°
2026-04-21 01:41 49.60434 9.66693 17457 ft 402 kts 94°
2026-04-21 01:41 49.60190 9.70966 16946 ft 399 kts 94°
2026-04-21 01:41 49.59947 9.75211 16438 ft 396 kts 94°
2026-04-21 01:41 49.59704 9.79427 15940 ft 394 kts 94°
2026-04-21 01:42 49.59457 9.83616 15444 ft 391 kts 94°
2026-04-21 01:42 49.59209 9.87780 14956 ft 389 kts 94°
2026-04-21 01:42 49.58966 9.91912 14467 ft 386 kts 94°
2026-04-21 01:42 49.58722 9.96021 13980 ft 384 kts 94°
2026-04-21 01:43 49.58476 10.00114 13462 ft 382 kts 94°
2026-04-21 01:43 49.58233 10.04174 12976 ft 379 kts 94°
2026-04-21 01:43 49.57989 10.08205 12493 ft 376 kts 94°
2026-04-21 01:43 49.57745 10.12200 12011 ft 373 kts 94°
2026-04-21 01:44 49.57501 10.16158 11528 ft 370 kts 94°
2026-04-21 01:44 49.57259 10.20086 11037 ft 366 kts 94°
2026-04-21 01:44 49.57018 10.23972 10557 ft 361 kts 94°
2026-04-21 01:44 49.56784 10.27673 10281 ft 332 kts 94°
2026-04-21 01:45 49.56568 10.31052 10160 ft 304 kts 94°
2026-04-21 01:45 49.56367 10.34167 9891 ft 284 kts 94°
2026-04-21 01:45 49.56178 10.37157 9324 ft 278 kts 94°
2026-04-21 01:45 49.55995 10.40107 8647 ft 276 kts 94°
2026-04-21 01:46 49.55809 10.43038 8028 ft 277 kts 94°
2026-04-21 01:46 49.55619 10.45999 7561 ft 278 kts 94°
2026-04-21 01:46 49.55430 10.48957 7117 ft 277 kts 93°
2026-04-21 01:46 49.55239 10.51887 6791 ft 273 kts 94°
2026-04-21 01:47 49.54995 10.54797 6396 ft 271 kts 96°
2026-04-21 01:47 49.54724 10.57647 6307 ft 268 kts 96°
2026-04-21 01:47 49.54445 10.60483 6193 ft 268 kts 96°
2026-04-21 01:47 49.54157 10.63311 6075 ft 267 kts 97°
2026-04-21 01:48 49.53875 10.66132 5956 ft 266 kts 96°
2026-04-21 01:48 49.53609 10.68945 5857 ft 266 kts 96°
2026-04-21 01:48 49.53345 10.71749 5575 ft 261 kts 96°
2026-04-21 01:48 49.53085 10.74493 5231 ft 257 kts 96°
2026-04-21 01:49 49.52827 10.77196 4882 ft 254 kts 96°
2026-04-21 01:49 49.52573 10.79863 4528 ft 249 kts 96°
2026-04-21 01:49 49.52325 10.82450 4194 ft 239 kts 96°
2026-04-21 01:49 49.52088 10.84919 3872 ft 227 kts 96°
2026-04-21 01:50 49.51862 10.87266 3570 ft 217 kts 96°
2026-04-21 01:50 49.51646 10.89518 3273 ft 208 kts 96°
2026-04-21 01:50 49.51438 10.91671 2988 ft 198 kts 96°
2026-04-21 01:50 49.51243 10.93678 2753 ft 183 kts 96°
2026-04-21 01:51 49.51061 10.95555 2479 ft 169 kts 96°
2026-04-21 01:51 49.50903 10.97181 2259 ft 145 kts 95°
2026-04-21 01:51 49.50762 10.98631 2059 ft 131 kts 95°
2026-04-21 01:51 49.50632 10.99989 1856 ft 128 kts 96°
2026-04-21 01:52 49.50511 11.01375 1691 ft 130 kts 96°
2026-04-21 01:52 49.50238 11.04060 1300 ft 124 kts 98°
2026-04-21 01:52 49.50103 11.05359 1141 ft 120 kts 97°
2026-04-21 01:53 49.50025 11.06204 1042 ft 115 kts 97°
2026-04-21 01:53 49.49929 11.07243 1024 ft 76 kts 99°
2026-04-21 01:53 49.49866 11.07821 1028 ft 45 kts 99°
2026-04-21 01:53 49.49832 11.08197 1032 ft 30 kts 97°
2026-04-21 01:54 49.49804 11.08471 1036 ft 19 kts 99°
2026-04-21 01:54 49.49705 11.08554 1036 ft 20 kts 202°
2026-04-21 01:54 49.49644 11.08448 1034 ft 11 kts 233°
2026-04-21 01:54 49.49589 11.08368 1032 ft 6 kts 185°
2026-04-21 01:55 49.49540 11.08331 1030 ft 10 kts 234°
2026-04-21 01:55 49.49540 11.08225 1028 ft 6 kts 278°
2026-04-21 01:55 49.49519 11.08177 1026 ft 8 kts 193°
2026-04-21 01:55 49.49482 11.08168 1026 ft 2 kts 189°
2026-04-21 01:56 49.49477 11.08167 1026 ft 0 kts 188°